Time,TemperatureF,DewpointF,PressureIn,WindDirection,WindDirectionDegrees,WindSpeedMPH,WindSpeedGustMPH,Humidity,HourlyPrecipIn,Conditions,Clouds,dailyrainin,SolarRadiationWatts/m^2,SoftwareType,DateUTC
2013-11-10 00:02:00,34.0,29.0,-100.00,NW,305,8.0,18.0,82,0.00,,,0.12,0.000000,,2013-11-10 06:02:00,
2013-11-10 00:42:00,34.0,29.0,-100.00,NW,305,8.0,18.0,82,0.00,,,0.12,0.000000,,2013-11-10 06:42:00,
2013-11-10 00:52:00,34.0,29.0,-100.00,NW,305,8.0,18.0,82,0.00,,,0.12,0.000000,,2013-11-10 06:52:00,
2013-11-10 01:02:00,34.0,28.0,-100.00,NW,311,8.0,18.0,80,0.00,,,0.11,0.000000,,2013-11-10 07:02:00,
2013-11-10 01:43:00,34.0,28.0,-100.00,NW,311,8.0,18.0,80,0.00,,,0.11,0.000000,,2013-11-10 07:43:00,
2013-11-10 01:52:00,34.0,28.0,-100.00,NW,311,8.0,18.0,80,0.00,,,0.11,0.000000,,2013-11-10 07:52:00,
2013-11-10 02:02:00,34.0,28.0,-100.00,NW,322,8.0,17.0,79,0.00,,,0.09,0.000000,,2013-11-10 08:02:00,
2013-11-10 02:22:00,34.0,28.0,-100.00,NW,322,8.0,17.0,79,0.00,,,0.09,0.000000,,2013-11-10 08:22:00,
2013-11-10 02:32:00,34.0,28.0,-100.00,NW,322,8.0,17.0,79,0.00,,,0.09,0.000000,,2013-11-10 08:32:00,
2013-11-10 02:43:00,34.0,28.0,-100.00,NW,322,8.0,17.0,79,0.00,,,0.09,0.000000,,2013-11-10 08:43:00,
2013-11-10 02:52:00,34.0,28.0,-100.00,NW,322,8.0,17.0,79,0.00,,,0.09,0.000000,,2013-11-10 08:52:00,
2013-11-10 03:02:00,34.0,27.0,-100.00,NW,320,9.0,21.0,76,0.00,,,0.07,0.000000,,2013-11-10 09:02:00,
2013-11-10 03:22:00,34.0,27.0,-100.00,NW,320,9.0,21.0,76,0.00,,,0.07,0.000000,,2013-11-10 09:22:00,
2013-11-10 03:33:00,34.0,27.0,-100.00,NW,320,9.0,21.0,76,0.00,,,0.07,0.000000,,2013-11-10 09:33:00,
2013-11-10 03:43:00,34.0,27.0,-100.00,NW,320,9.0,21.0,76,0.00,,,0.07,0.000000,,2013-11-10 09:43:00,
2013-11-10 03:53:00,34.0,27.0,-100.00,NW,320,9.0,21.0,76,0.00,,,0.07,0.000000,,2013-11-10 09:53:00,
2013-11-10 04:02:00,33.0,27.0,-100.00,NW,313,8.0,16.0,77,0.00,,,0.06,0.000000,,2013-11-10 10:02:00,
2013-11-10 04:23:00,33.0,27.0,-100.00,NW,313,8.0,16.0,77,0.00,,,0.06,0.000000,,2013-11-10 10:23:00,
2013-11-10 04:33:00,33.0,27.0,-100.00,NW,313,8.0,16.0,77,0.00,,,0.06,0.000000,,2013-11-10 10:33:00,
2013-11-10 04:42:00,33.0,27.0,-100.00,NW,313,8.0,16.0,77,0.00,,,0.06,0.000000,,2013-11-10 10:42:00,
2013-11-10 04:53:00,33.0,27.0,-100.00,NW,313,8.0,16.0,77,0.00,,,0.06,0.000000,,2013-11-10 10:53:00,
2013-11-10 05:02:00,33.0,26.0,-100.00,NW,311,7.0,15.0,75,0.00,,,0.06,0.000000,,2013-11-10 11:02:00,
2013-11-10 05:43:00,33.0,26.0,-100.00,NW,311,7.0,15.0,75,0.00,,,0.06,0.000000,,2013-11-10 11:43:00,
2013-11-10 05:52:00,33.0,26.0,-100.00,NW,311,7.0,15.0,75,0.00,,,0.06,0.000000,,2013-11-10 11:52:00,
2013-11-10 09:02:00,33.0,25.0,-100.00,WNW,300,4.0,11.0,73,-99.99,,,0.03,98.000000,,2013-11-10 15:02:00,
2013-11-10 09:43:00,33.0,25.0,-100.00,WNW,300,4.0,11.0,73,-99.99,,,0.03,98.000000,,2013-11-10 15:43:00,
2013-11-10 09:53:00,33.0,25.0,-100.00,WNW,300,4.0,11.0,73,-99.99,,,0.03,98.000000,,2013-11-10 15:53:00,
2013-11-10 10:02:00,33.0,25.0,-100.00,WNW,283,4.0,13.0,72,0.00,,,0.02,77.000000,,2013-11-10 16:02:00,
2013-11-10 10:42:00,33.0,25.0,-100.00,WNW,283,4.0,13.0,72,0.00,,,0.02,77.000000,,2013-11-10 16:42:00,
2013-11-10 10:53:00,33.0,25.0,-100.00,WNW,283,4.0,13.0,72,0.00,,,0.02,77.000000,,2013-11-10 16:53:00,
2013-11-10 11:02:00,35.0,25.0,-100.00,SW,231,5.0,13.0,66,0.01,,,0.03,164.000000,,2013-11-10 17:02:00,
2013-11-10 11:23:00,35.0,25.0,-100.00,SW,231,5.0,13.0,66,0.01,,,0.03,164.000000,,2013-11-10 17:23:00,
2013-11-10 11:34:00,35.0,25.0,-100.00,SW,231,5.0,13.0,66,0.01,,,0.03,164.000000,,2013-11-10 17:34:00,
2013-11-10 11:43:00,35.0,25.0,-100.00,SW,231,5.0,13.0,66,0.01,,,0.03,164.000000,,2013-11-10 17:43:00,
2013-11-10 11:52:00,35.0,25.0,-100.00,SW,231,5.0,13.0,66,0.01,,,0.03,164.000000,,2013-11-10 17:52:00,
2013-11-10 12:24:00,37.0,25.0,-100.00,SW,229,7.0,12.0,62,0.00,,,0.03,344.000000,,2013-11-10 18:24:00,
2013-11-10 12:32:00,37.0,25.0,-100.00,SW,229,7.0,12.0,62,0.00,,,0.03,344.000000,,2013-11-10 18:32:00,
2013-11-10 12:42:00,37.0,25.0,-100.00,SW,229,7.0,12.0,62,0.00,,,0.03,344.000000,,2013-11-10 18:42:00,
2013-11-10 12:52:00,37.0,25.0,-100.00,SW,229,7.0,12.0,62,0.00,,,0.03,344.000000,,2013-11-10 18:52:00,
2013-11-10 13:01:00,37.0,25.0,-100.00,SW,229,7.0,12.0,62,0.00,,,0.03,344.000000,,2013-11-10 19:01:00,
2013-11-10 13:02:00,40.0,25.0,-100.00,SSW,210,7.0,13.0,54,0.00,,,0.02,506.000000,,2013-11-10 19:02:00,
2013-11-10 13:22:00,40.0,25.0,-100.00,SSW,210,7.0,13.0,54,0.00,,,0.02,506.000000,,2013-11-10 19:22:00,
2013-11-10 13:32:00,40.0,25.0,-100.00,SSW,210,7.0,13.0,54,0.00,,,0.02,506.000000,,2013-11-10 19:32:00,
2013-11-10 13:42:00,40.0,25.0,-100.00,SSW,210,7.0,13.0,54,0.00,,,0.02,506.000000,,2013-11-10 19:42:00,
2013-11-10 13:52:00,40.0,25.0,-100.00,SSW,210,7.0,13.0,54,0.00,,,0.02,506.000000,,2013-11-10 19:52:00,
2013-11-10 14:02:00,41.0,25.0,-100.00,SW,224,5.0,14.0,52,0.00,,,0.02,310.000000,,2013-11-10 20:02:00,
2013-11-10 14:22:00,41.0,25.0,-100.00,SW,224,5.0,14.0,52,0.00,,,0.02,310.000000,,2013-11-10 20:22:00,
2013-11-10 14:32:00,41.0,25.0,-100.00,SW,224,5.0,14.0,52,0.00,,,0.02,310.000000,,2013-11-10 20:32:00,
2013-11-10 14:43:00,41.0,25.0,-100.00,SW,224,5.0,14.0,52,0.00,,,0.02,310.000000,,2013-11-10 20:43:00,
2013-11-10 14:52:00,41.0,25.0,-100.00,SW,224,5.0,14.0,52,0.00,,,0.02,310.000000,,2013-11-10 20:52:00,
2013-11-10 15:02:00,40.0,24.0,-100.00,SW,222,5.0,17.0,52,0.00,,,0.02,202.000000,,2013-11-10 21:02:00,
2013-11-10 15:22:00,40.0,24.0,-100.00,SW,222,5.0,17.0,52,0.00,,,0.02,202.000000,,2013-11-10 21:22:00,
2013-11-10 15:33:00,40.0,24.0,-100.00,SW,222,5.0,17.0,52,0.00,,,0.02,202.000000,,2013-11-10 21:33:00,
2013-11-10 15:43:00,40.0,24.0,-100.00,SW,222,5.0,17.0,52,0.00,,,0.02,202.000000,,2013-11-10 21:43:00,
2013-11-10 15:55:00,40.0,24.0,-100.00,SW,222,5.0,17.0,52,0.00,,,0.02,202.000000,,2013-11-10 21:55:00,
2013-11-10 16:02:00,37.0,24.0,-100.00,SW,215,4.0,11.0,58,0.00,,,0.02,54.000000,,2013-11-10 22:02:00,
2013-11-10 16:24:00,37.0,24.0,-100.00,SW,215,4.0,11.0,58,0.00,,,0.02,54.000000,,2013-11-10 22:24:00,
2013-11-10 16:34:00,37.0,24.0,-100.00,SW,215,4.0,11.0,58,0.00,,,0.02,54.000000,,2013-11-10 22:34:00,
2013-11-10 16:43:00,37.0,24.0,-100.00,SW,215,4.0,11.0,58,0.00,,,0.02,54.000000,,2013-11-10 22:43:00,
2013-11-10 16:54:00,37.0,24.0,-100.00,SW,215,4.0,11.0,58,0.00,,,0.02,54.000000,,2013-11-10 22:54:00,
2013-11-10 17:02:00,36.0,24.0,-100.00,SW,215,4.0,10.0,62,0.00,,,0.02,9.000000,,2013-11-10 23:02:00,
2013-11-10 17:22:00,36.0,24.0,-100.00,SW,215,4.0,10.0,62,0.00,,,0.02,9.000000,,2013-11-10 23:22:00,
2013-11-10 17:34:00,36.0,24.0,-100.00,SW,215,4.0,10.0,62,0.00,,,0.02,9.000000,,2013-11-10 23:34:00,
2013-11-10 17:43:00,36.0,24.0,-100.00,SW,215,4.0,10.0,62,0.00,,,0.02,9.000000,,2013-11-10 23:43:00,
2013-11-10 17:53:00,36.0,24.0,-100.00,SW,215,4.0,10.0,62,0.00,,,0.02,9.000000,,2013-11-10 23:53:00,
2013-11-10 18:02:00,36.0,24.0,-100.00,WSW,241,3.0,11.0,61,0.00,,,0.02,0.000000,,2013-11-11 00:02:00,
2013-11-10 18:22:00,36.0,24.0,-100.00,WSW,241,3.0,11.0,61,0.00,,,0.02,0.000000,,2013-11-11 00:22:00,
2013-11-10 18:32:00,36.0,24.0,-100.00,WSW,241,3.0,11.0,61,0.00,,,0.02,0.000000,,2013-11-11 00:32:00,
2013-11-10 18:42:00,36.0,24.0,-100.00,WSW,241,3.0,11.0,61,0.00,,,0.02,0.000000,,2013-11-11 00:42:00,
2013-11-10 18:52:00,36.0,24.0,-100.00,WSW,241,3.0,11.0,61,0.00,,,0.02,0.000000,,2013-11-11 00:52:00,
2013-11-10 19:02:00,36.0,25.0,-100.00,SW,234,4.0,10.0,65,0.00,,,0.02,0.000000,,2013-11-11 01:02:00,
2013-11-10 19:23:00,36.0,25.0,-100.00,SW,234,4.0,10.0,65,0.00,,,0.02,0.000000,,2013-11-11 01:23:00,
2013-11-10 19:32:00,36.0,25.0,-100.00,SW,234,4.0,10.0,65,0.00,,,0.02,0.000000,,2013-11-11 01:32:00,
2013-11-10 19:42:00,36.0,25.0,-100.00,SW,234,4.0,10.0,65,0.00,,,0.02,0.000000,,2013-11-11 01:42:00,
2013-11-10 19:52:00,36.0,25.0,-100.00,SW,234,4.0,10.0,65,0.00,,,0.02,0.000000,,2013-11-11 01:52:00,
2013-11-10 20:02:00,36.0,25.0,-100.00,WSW,245,5.0,12.0,65,0.00,,,0.01,0.000000,,2013-11-11 02:02:00,
2013-11-10 20:22:00,36.0,25.0,-100.00,WSW,245,5.0,12.0,65,0.00,,,0.01,0.000000,,2013-11-11 02:22:00,
2013-11-10 20:32:00,36.0,25.0,-100.00,WSW,245,5.0,12.0,65,0.00,,,0.01,0.000000,,2013-11-11 02:32:00,
2013-11-10 20:42:00,36.0,25.0,-100.00,WSW,245,5.0,12.0,65,0.00,,,0.01,0.000000,,2013-11-11 02:42:00,
2013-11-10 20:52:00,36.0,25.0,-100.00,WSW,245,5.0,12.0,65,0.00,,,0.01,0.000000,,2013-11-11 02:52:00,
2013-11-10 21:02:00,35.0,25.0,-100.00,WSW,246,6.0,14.0,66,0.00,,,0.01,0.000000,,2013-11-11 03:02:00,
2013-11-10 21:44:00,35.0,25.0,-100.00,WSW,246,6.0,14.0,66,0.00,,,0.01,0.000000,,2013-11-11 03:44:00,
2013-11-10 21:55:00,35.0,25.0,-100.00,WSW,246,6.0,14.0,66,0.00,,,0.01,0.000000,,2013-11-11 03:55:00,
2013-11-10 22:02:00,32.0,30.0,-100.00,WSW,245,3.0,11.0,92,0.00,,,0.01,0.000000,,2013-11-11 04:02:00,
2013-11-10 22:24:00,32.0,30.0,-100.00,WSW,245,3.0,11.0,92,0.00,,,0.01,0.000000,,2013-11-11 04:24:00,
2013-11-10 22:34:00,32.0,30.0,-100.00,WSW,245,3.0,11.0,92,0.00,,,0.01,0.000000,,2013-11-11 04:34:00,
2013-11-10 22:43:00,32.0,30.0,-100.00,WSW,245,3.0,11.0,92,0.00,,,0.01,0.000000,,2013-11-11 04:43:00,
2013-11-10 22:53:00,32.0,30.0,-100.00,WSW,245,3.0,11.0,92,0.00,,,0.01,0.000000,,2013-11-11 04:53:00,
2013-11-10 23:02:00,31.0,29.0,-100.00,WSW,240,2.0,9.0,93,0.00,,,0.01,0.000000,,2013-11-11 05:02:00,
2013-11-10 23:44:00,31.0,29.0,-100.00,WSW,240,2.0,9.0,93,0.00,,,0.01,0.000000,,2013-11-11 05:44:00,
2013-11-10 23:54:00,31.0,29.0,-100.00,WSW,240,2.0,9.0,93,0.00,,,0.01,0.000000,,2013-11-11 05:54:00,